Weather History for Galesburg, IL

Change the Weather History Date:

Saturday, February 22, 2014

  Actual Average Record
Temperature  
Mean Temperature 26 °F -  
Max Temperature 32 °F 39 °F 61 °F (1984)
Min Temperature 20 °F 22 °F -7 °F (1963)
Degree Days  
Heating Degree Days 38    
Moisture  
Dew Point 22 °F    
Average Humidity 79    
Maximum Humidity 100    
Minimum Humidity 50    
Precipitation  
Precipitation 0.00 in - - ()
Sea Level Pressure  
Sea Level Pressure 30.01 in    
Wind  
Wind Speed 4 mph (NNW)    
Max Wind Speed 16 mph    
Max Gust Speed 20 mph    
Visibility 10 miles    
Events      
Averages and records for this station are not official NWS values.
T = Trace of Precipitation, MM = Missing Value Source: NWS Daily Summary

Daily Weather History Graph

Daily Weather History Graph

Search for Another Location

Airport:

Trip Planner

Search our weather history database for the weather conditions in past years. The results will help you decide how hot, cold, wet, or windy it might be!

Date:

Astronomy

Feb. 22, 2014 Rise Set
Actual Time 6:46 AM CST 5:44 PM CST
Civil Twilight 6:18 AM CST 6:12 PM CST
Nautical Twilight 5:46 AM CST 6:44 PM CST
Astronomical Twilight 5:14 AM CST 7:16 PM CST
Moon 12:42 AM CST (2/22) 10:54 AM CST (2/22)
Length of Visible Light 11h 54m
Length of Day
10h 58m
Waning Gibbous, 50% of the Moon is Illuminated
Feb 22
Waning Gibbous
Mar 1
New
Mar 8
First Quarter
Mar 16
Full
Mar 23
Last Quarter

Hourly Weather History & Observations

Time (CST) Temp. Windchill Dew Point Humidity Pressure Visibility Wind Dir Wind Speed Gust Speed Precip Events Conditions
12:15 AM 29.5 °F 24.5 °F 24.1 °F 80% 29.89 in 10.0 mi West 4.6 mph - N/A   Clear
12:35 AM 27.9 °F - 23.9 °F 85% 29.89 in 10.0 mi Calm Calm - N/A   Clear
12:55 AM 26.2 °F 22.1 °F 23.4 °F 89% 29.90 in 10.0 mi SSW 3.5 mph - N/A   Clear
1:15 AM 25.9 °F 21.7 °F 23.7 °F 92% 29.90 in 10.0 mi SSW 3.5 mph - N/A   Clear
1:35 AM 25.5 °F 21.3 °F 25.0 °F 98% 29.90 in 10.0 mi South 3.5 mph - N/A   Clear
1:55 AM 25.9 °F 21.7 °F 23.7 °F 92% 29.90 in 10.0 mi SSW 3.5 mph - N/A   Clear
2:15 AM 24.6 °F 18.8 °F 23.4 °F 95% 29.91 in 10.0 mi SSW 4.6 mph - N/A   Clear
2:35 AM 25.0 °F 18.1 °F 23.4 °F 94% 29.92 in 10.0 mi SSW 5.8 mph - N/A   Clear
2:55 AM 24.8 °F 19.1 °F 23.0 °F 93% 29.93 in 10.0 mi SW 4.6 mph - N/A   Clear
3:15 AM 25.5 °F 21.3 °F 23.2 °F 91% 29.93 in 10.0 mi SW 3.5 mph - N/A   Clear
3:35 AM 26.1 °F - 23.5 °F 90% 29.91 in 10.0 mi Calm Calm - N/A   Clear
3:55 AM 26.6 °F 22.6 °F 23.5 °F 88% 29.93 in 10.0 mi WSW 3.5 mph - N/A   Clear
4:15 AM 25.7 °F - 23.2 °F 90% 29.93 in 10.0 mi Calm Calm - N/A   Clear
4:35 AM 23.7 °F 19.3 °F 23.4 °F 99% 29.94 in 10.0 mi South 3.5 mph - N/A   Clear
4:55 AM 23.5 °F - 23.0 °F 98% 29.94 in 10.0 mi Calm Calm - N/A   Clear
5:15 AM 22.8 °F - 22.6 °F 99% 29.94 in 10.0 mi Calm Calm - N/A   Scattered Clouds
5:35 AM 23.4 °F - 23.4 °F 100% 29.96 in 10.0 mi Calm Calm - N/A   Mostly Cloudy
5:55 AM 23.2 °F - 23.2 °F 100% 29.97 in 10.0 mi Calm Calm - N/A   Overcast
6:15 AM 23.9 °F - 23.7 °F 99% 29.97 in 10.0 mi Calm Calm - N/A   Overcast
6:35 AM 25.2 °F - 25.2 °F 100% 29.97 in 10.0 mi Calm Calm - N/A   Overcast
6:55 AM 24.8 °F 20.5 °F 24.3 °F 98% 29.98 in 10.0 mi NNW 3.5 mph - N/A   Mostly Cloudy
7:15 AM 25.3 °F 18.5 °F 24.8 °F 98% 29.99 in 10.0 mi NNW 5.8 mph - N/A   Clear
7:35 AM 27.0 °F 18.7 °F 25.2 °F 93% 30.00 in 10.0 mi North 8.1 mph - N/A   Clear
7:55 AM 27.3 °F 23.4 °F 25.7 °F 94% 30.01 in 10.0 mi North 3.5 mph - N/A   Scattered Clouds
8:15 AM 28.4 °F - 24.6 °F 86% 30.02 in 10.0 mi Calm Calm - N/A   Mostly Cloudy
8:35 AM 29.1 °F - 23.7 °F 80% 30.01 in 10.0 mi Calm Calm - N/A   Mostly Cloudy
8:55 AM 29.7 °F 24.7 °F 22.5 °F 75% 30.02 in 10.0 mi North 4.6 mph - N/A   Overcast
9:15 AM 30.0 °F 23.2 °F 21.7 °F 71% 30.03 in 10.0 mi NNW 6.9 mph - N/A   Overcast
9:35 AM 30.2 °F 25.4 °F 22.3 °F 72% 30.03 in 10.0 mi North 4.6 mph - N/A   Overcast
9:55 AM 30.0 °F - 19.6 °F 65% 30.02 in 10.0 mi Calm Calm - N/A   Overcast
10:15 AM 30.6 °F - 18.7 °F 61% 30.03 in 10.0 mi Calm Calm - N/A   Overcast
10:35 AM 30.9 °F 26.2 °F 18.7 °F 61% 30.03 in 10.0 mi North 4.6 mph - N/A   Overcast
10:55 AM 31.1 °F 27.7 °F 18.9 °F 61% 30.04 in 10.0 mi NNW 3.5 mph - N/A   Overcast
11:15 AM 31.6 °F 27.0 °F 18.1 °F 57% 30.04 in 10.0 mi North 4.6 mph - N/A   Overcast
11:35 AM 31.8 °F 28.5 °F 21.2 °F 65% 30.03 in 10.0 mi North 3.5 mph - N/A   Overcast
11:55 AM 32.0 °F - 21.7 °F 66% 30.03 in 10.0 mi Calm Calm - N/A   Overcast
12:15 PM 32.0 °F 28.7 °F 21.7 °F 66% 30.03 in 10.0 mi NNW 3.5 mph - N/A   Overcast
12:35 PM 32.0 °F 27.5 °F 21.4 °F 65% 30.03 in 10.0 mi NW 4.6 mph - N/A   Overcast
12:55 PM 32.0 °F 28.7 °F 21.7 °F 66% 30.02 in 10.0 mi NW 3.5 mph - N/A   Overcast
1:15 PM 32.0 °F 28.7 °F 23.9 °F 72% 30.01 in 10.0 mi North 3.5 mph - N/A   Overcast
1:35 PM 31.6 °F - 24.3 °F 74% 30.01 in 10.0 mi Calm Calm - N/A   Overcast
1:55 PM 31.8 °F - 25.0 °F 76% 30.00 in 10.0 mi Calm Calm - N/A   Overcast
2:15 PM 32.0 °F - 24.6 °F 74% 30.00 in 10.0 mi Calm Calm - N/A   Mostly Cloudy
2:35 PM 32.0 °F 28.7 °F 24.4 °F 74% 29.99 in 10.0 mi North 3.5 mph - N/A   Overcast
2:55 PM 32.0 °F 24.8 °F 24.8 °F 75% 29.99 in 10.0 mi North 8.1 mph - N/A   Overcast
3:15 PM 32.0 °F 23.6 °F 22.5 °F 68% 29.98 in 10.0 mi NNW 10.4 mph - N/A   Overcast
3:35 PM 32.0 °F 24.2 °F 21.7 °F 66% 30.00 in 10.0 mi NNW 9.2 mph - N/A   Overcast
3:55 PM 31.8 °F 23.3 °F 19.0 °F 59% 30.01 in 10.0 mi NNW 10.4 mph - N/A   Overcast
4:15 PM 31.6 °F 25.1 °F 20.7 °F 64% 30.02 in 10.0 mi NNW 6.9 mph - N/A   Overcast
4:35 PM 31.5 °F 25.8 °F 14.9 °F 50% 30.03 in 10.0 mi NNW 5.8 mph - N/A   Overcast
4:55 PM 30.7 °F 23.3 °F 17.1 °F 57% 30.03 in 10.0 mi North 8.1 mph - N/A   Overcast
5:15 PM 30.4 °F 24.5 °F 17.4 °F 59% 30.03 in 10.0 mi NNW 5.8 mph - N/A   Overcast
5:35 PM 29.8 °F 23.9 °F 20.3 °F 68% 30.03 in 10.0 mi NNW 5.8 mph - N/A   Overcast
5:55 PM 29.7 °F 23.7 °F 20.3 °F 68% 30.04 in 10.0 mi North 5.8 mph - N/A   Overcast
6:15 PM 29.3 °F 24.3 °F 21.9 °F 74% 30.05 in 10.0 mi North 4.6 mph - N/A   Overcast
6:35 PM 29.1 °F 25.4 °F 21.7 °F 74% 30.06 in 10.0 mi NNW 3.5 mph - N/A   Overcast
6:55 PM 28.9 °F 23.9 °F 19.9 °F 69% 30.06 in 10.0 mi NNW 4.6 mph - N/A   Overcast
7:15 PM 28.4 °F 23.3 °F 20.5 °F 72% 30.07 in 10.0 mi NNW 4.6 mph - N/A   Mostly Cloudy
7:35 PM 28.2 °F 24.4 °F 20.1 °F 72% 30.07 in 10.0 mi NNW 3.5 mph - N/A   Scattered Clouds
7:55 PM 28.0 °F 24.2 °F 20.3 °F 73% 30.08 in 10.0 mi NNW 3.5 mph - N/A   Scattered Clouds
8:15 PM 27.5 °F 22.2 °F 21.2 °F 77% 30.08 in 10.0 mi NNW 4.6 mph - N/A   Clear
8:35 PM 27.3 °F 19.9 °F 20.7 °F 76% 30.08 in 10.0 mi NNW 6.9 mph - N/A   Clear
8:55 PM 27.3 °F 19.1 °F 20.1 °F 74% 30.09 in 10.0 mi NNW 8.1 mph - N/A   Clear
9:15 PM 26.6 °F 17.5 °F 20.5 °F 78% 30.09 in 10.0 mi North 9.2 mph - N/A   Clear
9:35 PM 26.1 °F 15.6 °F 20.5 °F 79% 30.09 in 10.0 mi NNW 11.5 mph - N/A   Clear
9:55 PM 25.0 °F 13.6 °F 20.1 °F 82% 30.09 in 10.0 mi North 12.7 mph - N/A   Clear
10:15 PM 24.4 °F 14.9 °F 19.2 °F 81% 30.10 in 10.0 mi NNW 9.2 mph - N/A   Clear
10:35 PM 23.4 °F 13.5 °F 19.2 °F 84% 30.09 in 10.0 mi North 9.2 mph - N/A   Clear
10:55 PM 22.8 °F 10.9 °F 18.5 °F 83% 30.09 in 10.0 mi NNW 12.7 mph - N/A   Clear
11:15 PM 22.1 °F 9.5 °F 17.6 °F 83% 30.09 in 10.0 mi NNW 13.8 mph 19.6 mph N/A   Clear
11:35 PM 21.2 °F 8.3 °F 16.9 °F 83% 30.10 in 10.0 mi NNW 13.8 mph - N/A   Clear
11:55 PM 20.3 °F 6.1 °F 14.7 °F 79% 30.11 in 10.0 mi NNW 16.1 mph - N/A   Clear